Location: Asheville, NC
(35.6000°N, 82.5500°W)
Time: 15:54:54
(UTC-05:00)

N. Korean satellite - Pass Details

Date: 07 December 2017
Orbit: 459 x 515 km, 97.2° (Epoch: 19 January)

Event Time Altitude Azimuth Distance (km) Brightness Sun altitude
Rises 19:05:19 0° 190° (S) 2,544 10.5 -21.5°
Reaches altitude 10° 19:07:32 10° 201° (SSW) 1,678 9.7 -21.9°
Maximum altitude 19:10:44 29° 263° (W) 929 8.6 -22.5°
Drops below altitude 10° 19:14:00 10° 325° (NW) 1,717 9.6 -23.2°
Sets 19:16:18 0° 337° (NNW) 2,615 10.4 -23.6°
